Location: Le Petit-Vavre
(46.5081°N, 1.5239°E)
Time: 07:30:16
(UTC+00:00)

SJ-6B - Pass Details

Date: 03 March 2021
Orbit: 509 x 581 km, 97.6° (Epoch: 18 April)

Event Time Altitude Azimuth Distance (km) Brightness Sun altitude
Exits shadow 19:22:08 33° 135° (SE) 987 3.7 -17.8°
Maximum altitude 19:23:44 55° 73° (ENE) 692 2.9 -18.1°
Drops below altitude 10° 19:27:44 10° 356° (N) 1,876 5.7 -18.8°
Sets 19:29:53 0° 352° (N) 2,767 6.7 -19.1°
